TimeMST,TemperatureF,Dew PointF,Humidity,Sea Level PressureIn,VisibilityMPH,Wind Direction,Wind SpeedMPH,Gust SpeedMPH,PrecipitationIn,Events,Conditions,WindDirDegrees,DateUTC
12:53 AM,26.1,19.0,75,29.82,10.0,NW,11.5,-,N/A,,Clear,310,2013-02-18 07:53:00
1:53 AM,25.0,19.0,78,29.86,10.0,NW,6.9,-,N/A,,Partly Cloudy,310,2013-02-18 08:53:00
2:08 AM,26.6,19.4,74,29.85,10.0,WNW,6.9,-,N/A,,Mostly Cloudy,290,2013-02-18 09:08:00
2:53 AM,28.0,19.9,72,29.86,10.0,WNW,11.5,-,N/A,,Overcast,300,2013-02-18 09:53:00
3:53 AM,30.0,18.0,61,29.86,10.0,WNW,11.5,-,N/A,,Overcast,300,2013-02-18 10:53:00
4:53 AM,28.0,18.0,66,29.92,10.0,NW,9.2,-,N/A,,Mostly Cloudy,310,2013-02-18 11:53:00
5:53 AM,28.0,16.0,61,29.96,10.0,NW,13.8,-,N/A,,Mostly Cloudy,320,2013-02-18 12:53:00
6:53 AM,28.0,18.0,66,29.99,10.0,NW,16.1,-,N/A,,Clear,310,2013-02-18 13:53:00
7:53 AM,28.9,19.0,67,30.03,10.0,WNW,9.2,-,N/A,,Mostly Cloudy,290,2013-02-18 14:53:00
8:53 AM,30.9,17.1,57,30.04,10.0,NW,11.5,-,N/A,,Overcast,320,2013-02-18 15:53:00
9:53 AM,30.9,16.0,54,30.05,10.0,NW,16.1,20.7,N/A,,Overcast,310,2013-02-18 16:53:00
10:53 AM,32.0,16.0,52,30.07,10.0,NW,13.8,-,N/A,,Overcast,310,2013-02-18 17:53:00
11:53 AM,32.0,16.0,52,30.05,10.0,North,9.2,18.4,N/A,,Overcast,350,2013-02-18 18:53:00
12:53 PM,30.9,17.1,57,30.06,3.0,NW,11.5,19.6,0.00,Snow,Light Snow,320,2013-02-18 19:53:00
1:53 PM,32.0,18.0,56,30.06,6.0,NW,11.5,21.9,0.00,Snow,Light Snow,310,2013-02-18 20:53:00
2:53 PM,36.0,17.1,46,30.04,10.0,West,13.8,-,0.00,,Overcast,270,2013-02-18 21:53:00
3:12 PM,33.8,15.8,48,29.98,10.0,NW,12.7,21.9,N/A,,Overcast,320,2013-02-18 22:12:00
3:53 PM,34.0,21.0,59,30.06,10.0,West,11.5,-,0.00,,Mostly Cloudy,280,2013-02-18 22:53:00
4:53 PM,30.9,19.9,64,30.09,10.0,NW,8.1,-,N/A,,Overcast,310,2013-02-18 23:53:00
5:02 PM,30.2,21.2,69,30.01,2.5,NNW,10.4,-,0.00,Snow,Light Snow,330,2013-02-19 00:02:00
5:04 PM,30.2,21.2,69,30.01,1.8,NW,11.5,17.3,0.00,Snow,Light Snow,320,2013-02-19 00:04:00
5:10 PM,30.2,21.2,69,30.01,2.0,NW,9.2,-,0.00,Snow,Light Snow,310,2013-02-19 00:10:00
5:13 PM,30.2,21.2,69,30.01,4.0,WNW,6.9,-,0.00,Snow,Light Snow,300,2013-02-19 00:13:00
5:53 PM,28.9,23.0,78,30.12,2.5,WNW,11.5,-,0.00,Snow,Light Snow,300,2013-02-19 00:53:00
6:00 PM,28.4,23.0,80,30.03,1.0,WNW,9.2,-,0.00,Snow,Light Snow,290,2013-02-19 01:00:00
6:19 PM,26.6,24.8,93,30.03,3.0,West,5.8,-,0.00,Snow,Light Snow,280,2013-02-19 01:19:00
6:37 PM,28.4,21.2,74,30.04,9.0,North,6.9,-,0.00,,Overcast,350,2013-02-19 01:37:00
6:53 PM,28.0,19.0,69,30.13,10.0,North,8.1,-,0.00,,Overcast,360,2013-02-19 01:53:00
7:53 PM,21.9,16.0,78,30.14,10.0,NNE,11.5,-,N/A,,Clear,20,2013-02-19 02:53:00
8:53 PM,19.0,14.0,81,30.17,10.0,Calm,Calm,-,N/A,,Clear,0,2013-02-19 03:53:00
10:53 PM,19.9,15.1,81,30.19,10.0,Calm,Calm,-,N/A,,Clear,0,2013-02-19 05:53:00
11:53 PM,16.0,12.0,84,30.20,10.0,North,3.5,-,N/A,,Clear,360,2013-02-19 06:53:00